Location: Miles
(41.4492°N, 81.6087°W)
Time: 14:07:58
(UTC+00:00)

Vanguard 3 - Visible Passes

Search period start: 13 September 2024 00:00
Search period end: 23 September 2024 00:00
Orbit: 507 x 3225 km, 33.4° (Epoch: 12 September)

Date Brightness Start Highest point End Pass type
(mag) Time Alt. Az. Time Alt. Az. Time Alt. Az.
13 Sep 11.2 10:30:06 10° SSW 10:45:00 30° SE 10:59:39 10° E visible
14 Sep 11.3 09:13:48 10° S 09:24:26 19° SE 09:35:38 10° E visible
15 Sep 11.1 10:02:03 10° SSW 10:16:39 31° SE 10:31:59 10° E visible
16 Sep 11.1 08:45:43 10° S 08:56:12 19° SE 09:07:44 10° E visible
17 Sep 11.0 09:34:08 10° SSW 09:48:13 32° SE 10:03:59 10° E visible
18 Sep 11.0 08:17:50 10° S 08:27:54 20° SE 08:39:31 10° E visible
18 Sep 10.8 10:24:40 10° SW 10:40:44 46° SSE 10:58:20 10° E visible
19 Sep 10.8 09:06:22 10° SSW 09:19:43 33° SE 09:35:41 10° E visible
20 Sep 10.8 07:51:20 12° SSE 07:59:36 20° SE 08:10:57 10° E visible
20 Sep 10.6 09:56:52 10° SW 10:12:05 47° SSE 10:30:04 10° E visible
21 Sep 10.6 08:40:57 16° S 08:51:12 33° SE 09:07:04 10° E visible
21 Sep 10.5 10:48:27 10° SW 11:05:02 58° SSE 11:23:44 10° E visible
22 Sep 10.7 07:26:22 16° SSE 07:31:18 20° SE 07:42:09 10° E visible
22 Sep 10.4 09:30:29 14° SW 09:43:24 47° SSE 10:01:30 10° E visible
